Location: ??????????
(54.4061°N, 22.6114°E)
Time: 19:43:53
(UTC+00:00)

STARLINK-28 - Pass Details

Date: 23 October 2019
Orbit: 548 x 551 km, 53.0° (Epoch: 10 November)

Event Time Altitude Azimuth Distance (km) Brightness Sun altitude
Rises 17:21:00 0° 278° (W) 2,721 8.9 -19.1°
Reaches altitude 10° 17:23:15 10° 275° (W) 1,827 7.5 -19.4°
Maximum altitude 17:27:20 58° 196° (SSW) 646 3.9 -20.0°
Enters shadow 17:28:13 46° 148° (SSE) 745 3.9 -20.1°
